星链-34424 (STARLINK-34424)

导读 | 豆包AI

STARLINK-34424是美国于2025年6月8日发射的星链卫星,星链是SpaceX打造的低轨卫星互联网星座计划,旨在为全球提供高速低延迟互联网络,该卫星入轨后将承担为地面用户提供互联网接入服务,进一步扩展星链星座的全球覆盖能力与服务容量。

Basic Information
目录编号:
64295
目录名称:
STARLINK-34424
国际标识:
2025-123E
轨道中心:
EARTH
卫星名称:
星链-34424
卫星全名:
星链-34424 (STARLINK-34424)
卫星状态:
在轨 (已飞行325 天)
发射日期:
2025-06-08 UTC
国别 :
美国 (US)
星等 :
--
Orbit Information
数据来源 国际轨道数据 AOE轨道数据
星历时间 2026-04-29T14:00:03+0800
10小时前
查看轨道信息
2026-04-23T16:00:00+0800
6天前
查看轨道信息
半长轴 6950.315km 6950.151km
偏心率 0.0003852 0.000469
轨道倾角 70.001° 69.997°
近地点辐角 266.703° 300.065°
升交点赤经 67.150° 82.092°
平近点角 227.935° 329.063°
近地点 569.5km 568.754km
远地点 574.856km 575.274km
周期 96.110分钟 96.106分钟
每日圈数 14.982907 14.983436
Detailed Information
固有亮度:
5
最大亮度:
2.5
卫星平台:
Starlink V1.0
覆盖范围:
全球
运营商:
太空探索技术公司
运营商所在国:
美国
制造商(研发单位):
太空探索技术公司
制造商所在国:
美国
使用方式:
暂无
Satellite Introduction
Starlink 计划是 SpaceX 推出的全球卫星互联网项目,通过发射低轨道卫星,为全球尤其是偏远地区提供高速、低延迟的互联网服务。自 2019 年起,Starlink 已部署数千颗卫星,旨在缩小全球数字鸿沟,推动互联网普及。该项目还为军事、航空等行业提供通信支持,带来广泛经济效益。
2D Orbit Map
3D Orbit Map
Orbit Altitude Analysis Chart
Orbit Inclination Analysis Chart
Orbit Comprehensive Analysis Chart
View Comprehensive Chart